Tracking 30102 objects as of 12-Dec-2024
HD Live streaming from Space Station
objects crossing your sky now

STARLINK-32137

Track STARLINK-32137 now!
10-day predictions
STARLINK-32137 is classified as:


NORAD ID: 60155
Int'l Code: 2024-120W
Perigee: 453.7 km
Apogee: 455.1 km
Inclination: 53.2 °
Period: 93.5 minutes
Semi major axis: 6825 km
RCS: Unknown
Launch date: June 27, 2024
Source: United States (US)
Launch site: AIR FORCE EASTERN TEST RANGE (AFETR)
Your satellite tracking list
Your tracking list is empty




NASA's NSSDC Master Catalog

Two Line Element Set (TLE):
1 60155U 24120W   24347.47737509  .00002992  00000-0  84758-4 0  9996
2 60155  53.1607 260.8865 0000979  88.4321 271.6796 15.39615801 27137
Source of the keplerian elements: AFSPC